GEFSSE_con_prob3kmehi_336.txt.gz
EHI
4 5 5 6 6 6 7 5 2 0 2 4 4 1 1 2 3 4 4 5 7 8 7 6 5 3 3 4 2 2 4 8 10 8 9 10 9 6 3 1 1 1 1
4 5 6 7 7 6 7 6 2 1 2 4 3 1 0 1 2 3 4 5 6 7 7 6 3 2 4 5 5 4 4 6 7 6 6 6 6 6 4 2 2 2 1
7 7 6 7 7 6 6 5 2 1 3 3 2 1 0 0 0 1 3 4 4 5 5 3 1 2 5 6 6 5 4 3 3 3 3 2 3 5 5 3 3 2 1
9 7 6 7 6 4 4 4 3 3 2 2 1 1 1 0 0 1 1 2 3 3 3 1 1 3 6 6 6 3 1 1 0 1 1 0 2 5 5 3 1 1 0
7 5 5 7 6 4 4 4 4 3 1 1 0 1 2 1 0 0 1 2 2 2 1 1 3 5 6 6 4 2 0 0 0 0 0 0 1 2 2 2 1 0 0
5 5 6 7 6 5 4 4 4 2 1 1 1 1 2 2 1 0 1 2 1 0 0 2 5 6 5 4 3 1 0 0 0 0 0 0 1 1 0 0 0 0 0
4 5 6 6 6 5 4 4 4 2 1 2 2 1 2 2 1 1 1 2 1 0 0 3 6 6 4 3 2 1 1 1 0 0 0 2 2 1 1 0 0 0 0
3 3 4 5 5 5 4 4 4 3 2 3 3 2 3 3 2 1 2 1 0 0 0 1 4 5 4 3 3 3 2 2 1 1 1 3 4 4 3 1 0 0 0
2 2 3 4 4 4 4 4 4 3 3 3 3 4 5 4 2 2 3 2 1 1 1 1 2 3 4 3 3 3 3 3 3 2 2 3 5 7 7 4 1 0 0
1 2 3 3 3 3 4 5 4 3 4 4 4 5 5 5 4 4 4 5 4 3 2 2 3 3 4 4 3 3 3 3 3 3 3 4 7 9 9 7 4 2 1
4 4 3 3 3 2 3 4 5 5 5 4 4 4 4 4 4 5 7 9 8 5 4 4 4 4 4 3 3 4 3 3 3 4 5 7 10 11 10 8 7 4 3
7 7 5 3 3 2 2 3 4 4 4 4 4 4 3 3 4 5 8 11 11 8 6 5 5 4 3 3 4 4 4 3 4 4 6 10 13 13 12 11 9 7 5
8 7 5 4 4 4 3 3 4 3 3 5 6 5 4 4 5 5 7 10 11 8 5 5 5 4 3 4 4 4 3 3 3 4 7 12 15 15 15 14 12 8 5
6 6 5 5 5 5 5 5 4 4 4 6 8 8 6 6 6 5 5 8 9 7 6 5 4 3 4 4 4 3 3 3 3 4 8 14 18 18 17 15 12 8 5
6 6 7 7 7 7 7 7 6 6 5 7 10 11 10 9 8 6 6 9 10 8 6 6 5 3 3 4 3 3 3 3 3 3 7 13 17 18 17 14 10 6 5
9 10 11 12 12 11 10 9 9 8 8 8 11 14 15 12 10 10 10 11 12 11 9 9 7 5 5 4 4 4 4 4 3 3 6 10 13 15 16 14 9 6 5
13 13 13 13 15 15 12 10 9 9 10 11 13 17 18 15 13 14 14 14 15 14 14 13 11 8 8 7 6 6 6 6 5 5 6 8 9 10 13 15 13 9 7
14 14 13 12 14 15 13 11 10 10 11 13 16 19 20 17 15 16 14 13 15 16 16 15 13 11 11 11 10 8 8 8 7 6 5 7 7 7 9 14 16 12 9
14 15 16 15 15 15 16 15 13 12 13 14 16 18 20 17 15 14 12 11 13 14 13 12 12 12 13 12 10 9 9 10 9 6 5 6 8 9 8 11 14 11 8
16 18 20 22 22 20 19 19 17 15 15 17 17 17 18 16 14 13 10 9 10 11 10 10 10 10 10 10 9 8 8 9 9 8 7 7 9 10 10 12 13 10 7
20 22 25 28 29 25 22 21 20 19 18 18 19 18 17 15 13 11 9 8 10 8 8 10 9 7 6 8 8 8 7 7 8 9 8 7 7 9 11 14 14 11 7
24 26 29 33 35 29 23 22 23 22 19 17 18 18 17 14 11 10 8 9 10 10 10 11 10 7 6 6 8 9 8 7 8 10 11 11 10 11 12 12 14 13 11
28 30 34 40 42 35 29 26 25 22 17 15 16 18 17 14 11 10 9 9 11 14 14 13 13 10 7 6 7 9 9 8 8 9 11 14 16 16 12 9 11 14 14
32 35 41 48 49 43 37 34 30 23 16 15 16 18 19 16 12 11 9 9 11 14 15 15 14 14 11 7 6 8 8 8 8 8 9 13 16 17 13 9 9 12 13
37 39 44 52 53 49 44 40 34 26 20 17 17 20 21 18 14 12 11 9 11 13 15 16 16 16 15 12 10 10 10 10 9 7 7 9 12 15 14 12 11 12 12
40 40 44 51 54 52 46 40 35 30 24 19 19 21 20 19 17 15 12 11 11 14 16 18 19 18 16 15 13 12 13 13 10 8 6 7 9 12 15 15 14 13 12

GEFSSE_con_prob3kmehi_342.txt.gz
EHI
1 4 9 11 11 10 9 7 6 6 6 6 6 6 6 6 7 8 9 10 7 5 5 5 5 5 5 4 2 4 6 7 7 6 5 7 10 12 11 9 5 2 3
0 3 7 9 9 9 9 8 7 6 6 6 6 6 7 7 8 8 9 8 8 7 6 6 6 5 5 5 4 4 5 6 6 6 5 5 7 10 9 6 4 3 3
0 2 5 7 7 7 9 9 7 6 6 6 5 5 7 8 8 7 6 5 6 7 7 7 7 6 6 6 5 4 4 5 6 6 4 3 4 6 7 5 3 3 3
1 2 4 6 6 7 8 8 7 6 6 5 4 5 7 7 7 5 3 2 3 5 5 5 6 6 6 6 5 4 4 5 6 4 2 1 2 5 7 5 4 3 3
1 1 3 6 7 6 6 6 6 5 4 4 4 5 6 5 4 3 2 2 3 3 3 4 5 5 5 5 4 3 4 5 4 2 0 0 1 4 7 6 4 3 3
0 0 3 6 6 5 5 5 4 4 4 3 3 4 4 3 2 2 4 6 5 3 4 5 6 6 6 5 4 3 3 4 3 1 0 0 1 3 7 8 5 3 1
0 1 2 4 5 4 4 4 4 4 5 4 3 3 3 2 2 3 5 7 6 5 6 7 7 7 7 6 6 5 4 3 2 0 0 0 1 3 7 9 8 4 2
1 2 2 2 2 3 4 4 3 4 5 5 2 2 3 4 3 3 4 5 5 5 6 7 6 6 7 7 6 5 4 3 2 1 0 0 1 4 8 9 9 7 6
1 1 1 1 0 1 2 2 2 3 4 3 2 2 5 6 5 4 3 4 4 5 5 6 6 5 6 6 5 4 3 3 3 2 1 0 1 4 7 8 8 9 9
1 0 0 0 0 0 1 2 4 4 4 3 2 3 5 5 5 4 3 3 4 4 5 6 5 5 5 5 4 4 3 3 3 3 2 1 2 5 8 8 7 8 10
1 0 0 0 0 0 1 3 5 5 3 3 3 4 4 4 4 4 4 3 4 5 6 6 5 4 4 4 5 4 4 3 3 3 3 3 4 7 9 8 7 7 8
2 1 0 1 1 0 0 1 2 3 2 1 2 4 4 3 3 4 4 3 4 5 5 5 4 3 4 4 4 4 3 3 3 3 3 4 6 8 9 9 7 6 6
3 2 2 2 2 1 0 0 0 1 1 0 1 2 3 3 3 4 4 4 3 4 4 3 3 3 3 3 3 3 3 3 3 3 3 4 7 9 10 10 8 6 5
3 3 3 4 3 2 1 0 0 1 1 1 1 2 3 3 3 3 4 3 3 3 3 3 3 3 3 3 3 3 3 3 2 1 1 4 7 9 10 11 10 8 6
4 4 5 5 4 3 2 0 1 2 2 2 2 3 3 3 3 3 3 3 3 3 3 3 3 3 3 3 3 3 3 3 1 0 0 2 5 7 9 11 12 11 8
5 5 6 6 5 5 4 1 1 2 3 3 3 3 3 3 4 4 3 3 3 3 3 3 3 2 2 2 2 2 3 2 1 0 0 1 2 6 9 11 12 12 11
7 6 6 6 5 5 4 2 1 2 3 3 3 3 3 4 4 5 4 4 3 2 2 2 1 1 1 1 1 1 2 2 1 1 1 1 1 3 7 11 13 12 12
7 7 7 7 5 4 3 2 1 2 4 4 3 3 3 4 4 4 5 5 3 1 1 1 1 0 0 1 2 2 2 2 3 3 3 2 1 1 4 9 12 12 11
7 7 9 9 7 4 3 3 2 2 3 3 2 3 4 4 4 3 3 3 2 1 1 1 1 1 2 3 3 3 2 3 4 5 5 3 2 0 1 4 7 9 9
7 7 8 8 7 5 4 3 2 2 2 1 1 2 4 4 2 1 1 2 3 3 2 2 2 2 3 4 4 3 2 3 4 5 5 3 1 1 0 1 2 4 5
10 9 8 7 7 7 6 5 4 2 1 0 0 1 2 3 1 1 0 1 3 2 1 1 1 1 2 3 3 3 2 3 3 4 4 3 2 2 1 1 0 1 1
13 12 10 8 7 8 8 7 5 3 1 0 0 0 1 2 3 2 1 1 2 1 0 0 0 0 0 1 2 3 3 2 3 3 3 3 3 4 3 1 1 1 1
14 14 13 11 8 7 8 7 6 5 2 2 1 0 1 2 3 3 2 2 2 1 1 1 1 0 0 0 1 2 2 1 1 2 2 2 3 3 2 1 1 1 1
14 14 14 13 10 7 7 8 8 6 4 3 2 1 0 1 2 3 3 4 4 4 3 1 1 0 0 0 0 1 1 0 1 1 1 1 1 1 1 0 1 1 1
17 14 14 15 12 9 9 9 8 7 6 6 4 2 0 0 1 2 4 6 6 6 5 4 2 1 1 1 0 0 0 0 1 1 0 0 0 0 0 0 1 2 2
22 16 13 16 14 12 12 10 8 7 7 8 6 3 1 0 1 2 4 6 7 7 6 6 5 3 2 2 1 0 0 0 1 1 0 0 0 0 0 0 0 1 3

GEFSSE_con_prob3kmehi_348.txt.gz
EHI
0 2 6 8 9 11 11 11 10 9 7 6 7 7 7 6 5 5 4 3 2 3 5 4 2 1 1 1 2 3 3 3 2 2 4 4 3 3 3 3 2 2 2
1 3 6 7 8 9 9 9 9 9 8 6 7 8 7 5 5 4 4 4 3 3 4 4 2 0 1 2 3 3 3 3 3 3 3 3 3 3 3 3 3 2 2
0 2 5 6 7 7 7 7 8 8 7 6 6 7 6 4 4 4 5 5 5 5 5 3 1 0 0 1 3 3 3 4 5 4 3 1 1 3 3 3 2 2 3
0 1 4 6 6 6 5 4 5 7 7 6 6 6 5 4 3 4 4 6 7 6 4 2 1 0 0 1 2 3 4 5 5 4 2 0 1 2 2 1 1 1 2
1 1 3 6 6 4 3 2 3 6 6 6 6 6 5 3 3 3 3 5 6 5 3 1 0 1 1 1 1 4 6 6 4 3 2 1 1 2 2 1 1 1 2
2 1 3 5 6 3 2 1 2 4 6 6 6 6 5 4 3 3 3 5 7 5 3 2 1 1 2 2 3 6 7 5 2 2 2 1 0 1 2 2 2 2 3
3 2 2 5 7 5 2 0 0 2 4 5 5 6 6 5 5 4 3 5 6 4 3 2 1 1 4 4 4 6 7 5 1 1 1 1 0 0 1 1 1 2 3
3 2 2 5 7 7 4 1 1 1 2 3 3 5 6 6 6 5 4 4 4 3 2 1 1 2 4 6 6 6 6 4 2 0 0 0 0 0 0 0 1 3 4
3 3 2 4 6 6 5 2 1 1 2 3 3 3 4 4 5 6 6 4 4 3 2 2 2 3 4 6 6 6 6 4 2 1 1 1 0 0 0 0 1 3 4
3 3 3 3 4 4 3 1 1 2 3 5 4 2 1 2 3 5 6 5 5 4 3 3 3 3 4 5 6 6 5 4 3 3 2 2 1 1 0 0 1 2 3
3 3 3 3 3 2 1 0 1 2 3 3 3 2 1 1 2 4 5 4 4 5 4 4 4 4 4 4 4 5 4 3 3 3 3 3 3 2 1 1 1 2 3
3 3 3 3 3 2 1 1 1 1 1 1 1 1 0 0 1 3 4 3 4 5 5 5 5 4 3 3 3 4 3 3 3 3 3 3 3 3 3 2 2 3 4
3 3 3 3 3 3 3 2 2 2 1 0 0 0 0 0 1 2 3 3 4 5 5 4 3 3 2 3 3 3 3 2 2 2 3 3 3 3 3 3 3 4 5
3 3 3 3 3 3 3 3 3 3 2 1 0 0 1 1 1 3 3 3 3 3 3 2 2 1 1 2 3 3 2 1 1 1 1 2 3 3 3 3 3 4 5
3 3 3 3 3 3 3 3 3 3 3 2 0 0 1 1 3 4 4 3 2 1 1 2 1 0 0 1 2 2 2 1 0 0 0 1 1 2 2 3 3 3 4
3 3 3 3 3 3 3 3 3 3 3 2 0 0 1 2 4 4 4 2 1 1 1 2 1 0 0 1 1 1 1 1 0 0 0 0 0 1 1 1 2 3 3
3 3 3 4 3 3 3 3 3 3 2 1 0 0 1 3 3 3 2 1 0 0 1 1 1 1 1 2 2 1 1 0 1 1 0 0 0 0 0 0 1 1 2
3 3 4 5 4 4 4 3 3 2 1 1 0 0 1 2 2 2 1 0 0 0 0 1 1 2 2 3 3 2 1 1 2 1 0 0 0 0 0 0 0 0 1
3 3 4 5 6 5 5 3 2 1 0 0 0 0 1 1 1 1 0 0 0 0 0 0 1 1 1 3 3 2 1 2 2 1 0 0 0 0 0 0 0 1 2
3 3 3 4 5 5 4 3 2 1 1 1 1 1 0 0 1 1 0 0 0 1 1 1 1 0 1 2 3 3 2 3 3 1 1 0 0 0 0 0 0 1 2
3 3 3 3 4 3 3 3 3 2 2 2 2 2 1 0 1 1 0 0 0 1 2 2 1 0 0 1 2 3 2 2 2 2 2 1 0 0 0 0 0 0 1
3 3 3 3 3 1 1 2 3 3 3 2 2 2 2 2 1 1 0 0 0 1 1 2 1 1 0 0 1 2 1 1 1 1 2 1 0 0 0 0 0 0 0
3 3 3 3 2 1 1 1 2 2 2 2 2 3 3 3 3 2 1 0 0 0 0 0 1 1 0 0 0 0 0 0 0 0 1 1 0 0 0 0 0 0 0
3 3 3 3 1 1 2 2 3 3 3 3 3 3 3 4 3 3 2 1 0 0 0 0 0 0 0 0 0 0 0 0 0 0 0 0 0 0 0 0 0 0 0
3 3 3 3 1 1 2 3 3 3 4 4 4 3 3 3 3 3 2 1 1 1 1 0 0 0 0 0 0 0 0 0 0 0 0 0 0 0 0 0 0 0 0
3 3 3 3 2 1 2 3 3 3 4 4 4 3 3 3 3 2 1 1 2 2 2 1 0 0 0 0 0 0 0 0 0 0 0 0 0 0 0 0 0 0 0

GEFSSE_con_prob3kmehi_354.txt.gz
EHI
6 7 7 7 6 5 4 3 2 1 1 3 3 2 1 0 0 0 0 0 0 0 0 1 1 1 0 0 0 1 2 2 2 3 3 1 0 0 0 0 0 0 0
6 8 8 7 6 5 4 3 3 2 2 3 3 2 1 1 0 0 0 0 0 0 0 0 0 0 0 0 0 1 2 2 3 3 3 2 1 0 0 0 0 1 1
6 7 8 7 6 6 4 3 3 2 2 3 3 2 2 1 1 1 1 0 0 0 0 0 0 0 0 0 0 1 2 3 4 3 2 1 1 0 1 1 1 2 2
4 5 7 7 6 6 4 3 2 1 2 3 3 3 3 2 2 2 1 1 1 1 0 0 0 0 0 0 0 0 1 3 4 3 1 0 0 1 2 2 2 3 3
2 4 7 8 7 6 5 3 1 0 2 4 4 3 4 4 3 3 2 1 2 1 0 0 0 1 1 0 0 0 1 2 3 2 1 0 0 1 2 3 3 3 3
2 5 8 8 8 7 5 2 0 1 3 6 5 4 5 5 4 3 2 3 3 2 1 0 1 2 2 1 1 1 2 2 2 1 1 0 0 1 1 2 3 3 3
3 5 7 8 7 6 4 2 1 2 4 6 5 4 4 5 4 2 2 3 4 3 2 1 1 3 3 3 2 3 3 3 2 1 1 0 0 0 0 1 3 3 3
4 4 6 6 6 5 3 2 2 3 4 5 6 5 4 4 3 2 3 4 5 4 3 2 3 3 3 3 3 3 3 3 2 1 1 1 1 2 1 1 2 3 3
3 3 4 4 5 4 3 2 2 3 4 4 5 6 5 4 3 3 5 7 6 4 3 3 3 3 3 3 3 3 3 4 3 2 1 1 3 4 2 1 3 3 4
3 3 3 3 4 3 3 1 1 2 3 3 4 5 5 4 3 3 5 7 6 4 3 3 3 3 3 3 3 4 4 5 4 3 2 2 4 5 3 3 4 4 5
3 3 3 3 3 3 2 1 0 1 1 2 3 4 4 3 2 1 3 4 4 3 3 3 3 3 3 3 4 5 4 4 4 3 2 2 4 6 6 6 6 5 5
3 3 3 3 3 3 1 1 1 1 1 1 3 4 4 2 1 1 3 5 5 4 4 3 3 3 3 4 4 4 3 2 2 3 2 3 5 7 7 7 6 5 4
3 3 3 3 3 3 2 2 3 3 3 3 4 5 4 3 2 3 5 7 7 6 5 4 4 3 3 3 3 2 1 1 2 3 4 5 7 8 7 6 5 4 4
3 3 3 3 3 4 3 3 4 4 5 5 5 6 5 5 5 5 6 8 10 10 7 5 4 4 3 2 1 0 0 1 2 5 8 7 7 7 6 4 3 3 3
2 3 3 3 4 5 5 4 4 4 5 5 5 6 6 6 6 6 8 9 11 11 10 7 5 3 3 2 0 0 1 2 3 7 10 9 6 5 6 5 4 4 4
3 3 3 3 4 6 7 5 4 4 4 4 4 5 6 6 5 6 9 10 10 10 10 8 6 4 4 2 1 1 2 3 4 6 6 5 4 4 5 6 6 6 6
3 3 3 3 4 7 8 7 4 3 4 4 4 4 4 4 5 6 7 8 8 8 9 8 7 6 5 4 4 3 4 4 4 3 2 1 1 1 3 4 5 5 5
4 4 4 4 4 6 8 7 4 3 3 4 3 3 3 4 5 7 7 6 6 7 7 7 8 7 6 6 7 6 6 5 3 1 0 0 0 0 1 2 3 3 2
6 5 5 5 5 6 8 8 7 5 3 3 3 2 2 4 6 8 8 7 6 6 5 6 8 8 8 8 8 8 7 6 3 1 0 0 0 0 1 2 4 3 3
7 7 7 8 8 8 10 10 8 6 5 4 4 2 2 3 5 7 7 7 6 5 6 6 7 9 9 8 8 7 6 3 1 0 0 0 0 0 1 3 5 6 6
8 9 10 10 11 11 12 11 9 6 5 5 4 3 2 2 3 5 6 6 6 5 5 6 7 7 8 8 7 5 3 2 1 0 0 0 0 0 1 4 6 7 8
9 10 11 12 13 13 12 11 9 6 4 3 2 2 2 1 2 4 5 6 6 5 5 6 7 7 7 7 6 4 2 2 2 0 0 0 0 0 1 3 5 8 9
10 8 9 11 13 13 12 10 9 7 4 2 1 1 1 1 1 2 4 5 6 5 5 5 7 7 6 5 5 3 2 1 1 2 2 1 0 0 0 1 2 5 6
10 7 7 11 14 14 12 11 10 8 5 3 2 1 0 0 1 1 2 5 6 5 5 5 6 7 6 4 3 3 1 1 2 2 3 3 1 0 0 0 0 1 2
11 9 10 13 15 16 15 13 13 11 8 6 4 2 1 1 1 1 3 6 7 7 7 7 7 8 7 4 3 2 3 4 3 2 2 2 2 1 0 0 0 0 0
13 14 14 15 15 17 18 16 15 14 12 9 6 3 2 2 3 3 4 7 10 9 9 9 8 9 9 6 3 3 6 6 4 2 1 2 3 2 1 1 1 0 0

GEFSSE_con_prob3kmehi_360.txt.gz
EHI
11 10 7 5 4 3 3 3 3 3 2 1 1 2 2 1 0 1 0 0 1 2 3 2 2 2 2 5 6 5 3 1 2 2 3 5 5 3 1 1 1 3 3
12 10 7 5 4 3 3 3 2 2 2 2 1 1 1 1 1 1 1 1 2 3 3 1 1 1 3 5 7 6 3 1 1 2 2 3 3 3 2 2 3 4 4
11 8 6 5 4 3 3 3 2 2 2 1 0 1 2 1 1 1 1 2 3 3 3 1 0 1 4 6 7 6 3 1 2 2 2 1 1 3 4 3 4 4 4
8 6 5 5 5 4 4 3 2 3 2 1 0 1 1 1 0 0 1 1 2 3 3 2 1 1 3 5 6 5 2 1 2 2 1 1 2 4 4 4 4 4 4
7 6 6 5 5 6 5 3 2 2 2 1 0 0 0 0 0 0 0 0 1 2 3 2 1 1 1 3 5 4 3 2 2 1 1 1 3 4 5 5 3 3 3
7 8 8 7 6 5 4 2 1 1 1 1 0 0 0 0 0 0 0 0 1 1 1 2 2 2 1 2 3 4 3 3 2 1 0 1 3 6 7 6 3 2 3
8 10 12 12 10 7 3 1 1 2 2 2 1 0 0 0 0 0 0 0 1 2 1 1 2 2 1 2 4 4 4 4 2 1 1 2 4 8 10 7 3 3 3
10 11 12 13 13 9 5 2 2 3 3 3 3 2 1 1 1 1 1 1 2 2 1 1 2 2 3 4 5 4 3 3 1 1 2 3 7 12 13 10 7 5 5
9 8 8 9 10 9 8 6 4 4 4 4 5 5 5 4 4 5 4 4 4 3 3 3 4 5 5 5 5 5 5 4 2 0 1 4 10 15 15 12 9 7 5
6 5 4 4 6 7 7 6 6 5 5 6 6 6 7 7 8 9 9 8 7 6 5 5 6 7 7 6 6 7 8 6 3 2 2 5 11 16 16 13 9 5 4
5 5 5 5 5 5 5 5 5 6 6 6 6 6 7 8 11 12 12 12 11 9 7 6 7 8 8 7 8 9 9 7 5 5 7 11 14 17 16 12 8 4 3
5 5 6 6 5 4 4 4 4 4 5 5 6 7 8 9 11 12 13 15 15 12 9 8 8 9 9 8 7 8 8 6 5 6 12 18 19 18 14 10 7 5 4
4 5 5 5 5 4 5 5 3 4 5 6 7 9 10 10 11 12 13 15 14 12 10 9 9 8 7 6 5 5 5 4 3 5 12 19 21 16 11 8 7 6 5
3 4 5 6 6 6 6 7 5 5 7 8 9 10 10 11 11 12 13 12 11 11 11 9 8 7 6 4 4 3 3 2 3 4 9 16 18 15 12 11 9 6 6
4 5 5 8 11 12 12 9 8 8 8 9 10 9 8 9 11 12 12 11 11 12 12 9 7 6 5 5 5 5 4 4 4 5 8 13 17 16 15 14 11 8 7
6 6 7 10 16 19 16 12 10 9 8 8 8 9 8 8 11 13 13 12 11 13 14 12 10 8 6 6 7 7 8 7 7 6 6 10 15 17 16 16 14 10 8
6 8 8 10 16 20 16 12 10 9 8 8 9 9 9 10 13 15 14 13 12 13 15 14 12 10 6 5 6 7 8 10 9 7 7 9 12 14 16 17 15 13 12
10 12 11 10 13 17 16 13 10 9 8 9 10 10 10 11 14 16 13 12 13 13 13 12 11 11 8 6 5 5 7 9 9 7 9 10 11 13 15 17 17 16 15
21 22 20 16 15 16 16 14 10 8 9 9 10 12 13 13 15 17 15 13 13 14 12 9 11 13 11 8 5 4 6 7 7 6 8 10 13 15 15 15 16 17 16
34 33 30 27 24 20 16 13 10 8 9 10 12 16 18 16 17 18 16 14 14 14 13 9 10 13 13 9 6 5 5 6 6 6 7 8 11 14 15 15 16 16 16
43 40 38 36 34 28 22 17 12 9 9 10 13 19 21 18 16 16 13 13 13 14 15 12 11 12 11 10 9 6 5 5 5 5 5 5 6 9 13 14 15 15 13
44 42 40 41 40 35 30 25 17 12 10 9 13 20 21 16 14 13 13 12 12 13 15 15 14 12 10 10 10 7 6 5 4 3 3 4 4 6 9 10 12 12 11
40 39 40 43 42 38 33 26 19 15 13 13 17 22 22 17 15 14 15 15 12 12 14 15 15 13 11 10 10 9 7 6 3 2 4 5 5 6 6 6 7 10 11
35 36 40 43 43 40 33 25 19 17 17 19 23 25 25 23 20 17 17 18 16 14 14 14 14 14 12 11 11 10 9 7 3 2 3 4 6 7 7 6 6 7 9
30 34 40 46 47 43 37 29 22 18 18 20 24 28 29 29 27 22 19 20 19 17 16 14 15 15 13 11 11 11 10 8 6 4 3 4 5 7 9 8 6 5 5
28 33 41 47 49 47 41 33 25 21 18 18 22 28 31 31 30 26 22 21 21 20 17 16 17 17 13 10 11 11 10 10 9 6 4 4 5 7 10 9 6 4 3

GEFSSE_con_prob3kmehi_366.txt.gz
EHI
1 3 7 9 7 6 5 4 3 2 2 2 3 4 6 9 11 11 10 10 7 5 3 3 3 2 1 2 4 6 6 5 5 3 1 0 0 1 2 2 1 0 0
2 5 9 9 7 6 6 4 3 1 1 1 3 4 6 7 7 8 9 9 7 5 5 5 4 3 2 4 6 7 7 6 4 2 0 0 0 0 1 1 0 0 0
3 5 7 8 7 7 7 6 3 1 0 1 3 5 5 4 4 5 6 7 5 4 5 7 6 4 6 8 8 9 8 6 3 1 0 0 0 0 0 0 0 0 0
3 3 6 8 8 8 8 7 4 2 1 2 4 4 3 2 3 3 4 5 4 3 4 6 5 5 8 10 9 8 7 4 2 1 0 0 0 0 1 2 1 1 1
2 3 6 9 10 8 9 8 5 3 3 4 5 4 2 2 3 3 2 3 3 2 3 4 4 4 6 7 7 6 4 2 1 0 0 0 0 1 2 3 4 3 2
1 1 6 12 14 11 10 9 7 4 3 4 4 3 2 3 3 2 1 1 1 1 3 4 3 3 4 4 4 4 2 1 1 0 0 0 0 1 4 5 7 6 4
1 2 7 15 18 15 11 9 7 5 4 3 3 3 3 3 4 3 2 2 1 1 2 3 3 3 2 3 3 2 1 0 0 0 0 0 1 2 6 10 11 8 6
3 4 9 14 17 15 12 8 6 6 5 4 4 4 4 5 6 6 5 5 4 3 3 3 3 2 1 2 3 2 1 0 0 0 0 0 1 2 7 13 14 11 9
5 6 8 10 12 12 10 7 5 5 5 6 8 8 8 8 8 8 8 8 7 6 5 5 4 3 2 2 3 3 1 1 0 0 0 0 0 2 8 13 14 14 15
6 5 5 6 7 7 6 4 4 4 6 7 8 9 10 9 9 9 9 10 11 10 8 7 7 6 5 4 4 4 3 2 1 0 0 0 1 4 9 11 12 14 17
6 5 4 4 4 3 2 1 2 3 4 5 5 6 7 7 7 9 10 12 14 13 12 10 9 7 6 5 5 5 4 2 2 1 0 1 4 8 10 10 9 11 12
8 6 3 2 2 1 0 0 0 1 2 2 2 4 5 4 5 7 11 12 12 13 13 12 9 7 5 4 4 3 2 2 2 1 0 3 9 14 14 11 9 9 9
9 7 5 2 1 0 0 1 1 1 2 2 2 3 4 4 5 8 9 9 9 9 9 10 9 6 4 3 2 1 1 2 2 1 1 6 14 19 18 13 10 9 9
9 9 7 4 2 1 1 2 2 3 3 3 3 3 3 4 7 8 8 7 6 6 6 7 7 5 3 2 1 1 1 1 1 1 2 8 16 19 17 13 10 9 8
10 9 9 7 5 3 2 2 2 2 3 3 3 3 3 5 7 7 6 5 5 5 5 5 4 2 1 1 0 0 1 1 1 1 2 6 13 17 15 13 11 9 8
9 9 9 9 7 5 3 2 2 2 2 2 2 2 4 6 7 6 4 4 4 4 3 2 1 0 0 1 1 1 2 2 2 2 1 3 9 13 14 13 11 9 8
7 7 8 8 7 6 4 3 2 2 3 3 4 4 5 7 7 6 5 5 4 3 1 0 0 0 1 2 2 3 3 3 2 2 1 1 3 7 10 10 9 8 8
7 6 6 8 9 8 5 4 3 3 3 4 5 6 6 7 7 6 7 7 4 2 0 0 1 1 2 3 3 2 2 2 1 1 1 0 0 2 4 6 7 7 7
9 7 6 9 11 9 6 4 4 3 3 4 5 5 6 6 6 7 8 8 5 2 1 1 2 3 3 3 2 1 1 2 2 1 0 0 0 0 1 3 6 7 7
12 8 6 8 10 10 8 6 6 5 4 4 4 5 5 6 7 8 9 9 7 5 4 2 3 4 3 3 2 1 1 2 2 1 0 0 1 1 2 3 4 5 6
17 11 7 8 8 9 8 8 7 6 5 5 5 6 6 7 8 9 10 9 8 8 7 5 5 5 4 4 3 1 0 1 1 0 0 0 1 2 2 3 2 2 2
23 19 13 10 9 8 8 7 7 6 5 5 6 6 7 8 9 10 10 10 9 9 8 7 7 7 6 6 5 3 1 0 0 0 0 0 1 1 1 2 2 1 0
27 24 17 13 11 10 9 9 9 7 5 5 5 6 7 7 9 10 10 10 9 9 9 8 8 7 6 6 6 4 2 0 0 0 0 0 0 0 0 1 1 0 0
27 24 17 12 11 10 10 10 11 9 7 5 5 6 6 6 7 9 9 9 9 10 9 9 8 7 6 6 5 4 2 1 0 0 0 0 0 0 0 0 0 0 1
28 25 17 12 10 10 9 8 9 8 7 6 5 5 5 5 6 7 7 7 8 9 9 9 8 6 4 4 4 3 3 2 1 1 0 0 0 0 0 0 0 0 1
30 27 19 13 11 10 8 7 6 6 6 6 5 5 5 5 5 5 6 6 6 7 8 9 7 5 4 3 3 3 3 3 2 2 1 0 0 0 0 0 0 0 1

GEFSSE_con_prob3kmehi_372.txt.gz
EHI
2 3 6 7 7 6 7 10 13 13 14 14 15 14 10 6 4 3 3 3 2 3 3 3 2 1 0 0 0 0 0 1 1 0 0 1 0 0 1 1 1 0 0
2 3 5 7 6 6 7 9 11 11 11 12 12 11 9 5 3 3 3 3 3 3 3 3 2 2 1 0 0 0 2 3 3 1 1 1 1 0 0 0 0 0 0
2 3 5 6 6 5 5 6 7 7 7 7 8 8 7 5 3 3 3 3 4 4 3 2 2 2 2 1 2 2 4 5 5 3 3 2 1 0 0 0 0 0 0
2 3 5 7 6 5 3 2 3 4 3 3 5 7 7 6 3 2 2 2 2 3 2 2 2 3 3 4 5 5 6 6 5 3 3 2 1 0 0 0 1 0 0
1 3 6 8 7 4 3 2 1 2 2 2 3 5 8 7 4 2 1 1 1 1 1 1 2 3 4 6 6 6 6 5 3 2 2 2 1 0 0 1 1 0 0
1 2 6 11 10 6 4 3 2 2 3 3 3 4 6 7 5 3 2 0 0 0 0 1 1 2 3 4 4 4 4 4 2 1 1 1 0 0 0 1 0 0 0
0 1 6 13 14 9 5 3 3 4 5 5 4 3 4 4 3 2 1 1 0 0 1 2 2 2 1 1 1 1 1 1 1 0 0 0 0 0 0 0 0 0 1
1 0 4 11 12 8 5 4 4 4 4 4 3 3 3 3 2 2 2 2 2 2 2 3 3 2 1 0 0 0 0 0 0 0 0 0 0 0 0 0 0 0 1
2 1 2 5 5 4 5 5 4 2 2 2 1 1 2 2 2 3 3 4 5 4 4 4 4 3 1 1 0 0 0 0 0 0 0 0 0 0 0 0 0 0 1
2 1 1 2 3 2 3 3 3 1 1 1 1 1 1 2 2 2 3 5 4 4 5 5 5 4 2 1 0 0 0 0 0 0 0 0 0 0 1 1 1 1 0
3 1 1 2 3 2 1 1 1 1 1 1 1 1 2 3 2 2 3 3 2 2 4 5 5 5 2 1 0 0 0 0 0 0 0 0 0 1 2 2 2 2 1
5 3 2 3 3 2 0 0 0 1 1 1 1 1 2 3 2 2 2 2 1 1 1 3 4 4 3 1 0 0 1 0 0 0 0 0 1 3 3 3 3 3 3
6 5 3 3 3 2 0 0 0 1 2 1 0 0 1 1 1 1 1 1 0 0 0 1 2 2 2 1 0 0 0 0 0 1 1 1 2 3 4 4 4 3 3
6 5 2 2 2 1 0 0 0 1 1 1 0 0 0 0 0 0 0 0 0 0 0 0 0 1 1 1 0 0 0 0 0 1 1 1 1 3 5 6 5 3 2
6 4 1 1 1 0 0 0 0 0 0 0 0 0 0 0 0 0 0 0 0 0 1 0 0 0 0 0 0 0 0 0 0 0 0 0 1 2 3 5 5 3 2
8 5 2 0 0 0 0 0 0 0 0 0 0 0 0 0 0 1 2 2 1 0 0 0 0 0 0 0 0 0 0 0 0 0 0 0 0 1 1 2 3 3 3
10 7 4 2 2 2 1 1 1 1 1 0 0 0 0 0 1 2 3 3 2 0 0 0 0 0 0 0 0 0 0 0 0 0 0 0 1 2 1 1 3 4 5
9 7 6 5 5 4 3 2 1 1 0 0 0 0 0 1 2 3 4 3 2 0 0 0 0 0 0 0 0 0 0 0 0 0 0 0 1 2 2 2 4 5 6
6 6 6 6 6 6 4 2 1 0 0 0 0 0 0 1 2 3 4 3 2 1 1 1 1 0 0 1 0 0 0 0 0 0 0 0 1 1 1 2 3 5 6
3 4 5 6 6 5 4 2 1 1 1 2 2 1 1 1 3 4 4 4 3 3 2 2 2 1 1 1 0 0 0 0 0 0 0 0 0 1 1 1 2 3 3
2 2 4 5 6 4 3 3 2 3 3 4 4 4 4 4 4 4 4 3 3 4 4 4 4 3 2 2 1 0 0 0 0 0 0 0 1 2 2 2 2 1 1
2 3 3 4 4 3 3 3 3 3 4 4 5 6 6 6 5 4 3 3 4 4 4 4 5 5 5 4 3 1 1 0 0 0 0 0 1 2 2 3 2 1 0
6 6 5 4 3 2 2 3 4 4 4 4 4 5 6 6 5 4 3 3 3 4 4 4 5 6 6 5 4 3 2 1 1 0 0 0 0 1 1 1 2 1 1
10 8 6 4 2 1 2 4 5 5 4 3 3 3 3 4 4 4 4 4 3 3 3 4 6 8 8 6 4 3 3 3 2 1 0 0 0 0 0 0 1 1 0
10 8 6 4 2 1 3 4 4 4 3 2 1 1 1 1 3 3 4 5 5 4 4 6 8 8 7 6 5 4 3 3 2 1 0 0 0 0 0 0 0 0 0
9 8 6 4 2 2 4 5 4 3 2 1 0 0 0 0 1 2 4 6 6 5 5 7 8 7 6 6 6 4 3 3 2 1 0 0 0 0 0 0 0 0 0